Flag Weather past 2 weeks in San Buenaventura, California, U.S.A.

Now
64 °F

Clear.


Feels Like: 64 °F
Forecast: 57 / 79 °F
Wind: 3 mph from North

Location: Oxnard Airport

Current Time: Nov 27, 2014 at 12:43:14 AM

Latest Report: Nov 26, 2014 at 11:51 PM


Visibility: 10 mi

Pressure: 30.12 "Hg

Humidity: 29%

Dew point: 31 °F

Location of San BuenaventuraLocation

Historic Weather in San Buenaventura — Graph

°F

San Buenaventura temperature yesterday

Maximum temperature yesterday: 76 °F (at 10:51 AM)
Minimum temperature yesterday: 55 °F (at 9:51 PM)
Average temperature yesterday: 64 °F

Past Weeks' High & Low Weather Summary

 TemperatureHumidityPressure
High81 °F (Nov 18, 11:51 AM)93% (Nov 13, 6:51 PM)30.39 "Hg (Nov 13, 6:51 PM)
Low52 °F (Nov 16, 4:51 AM)5% (Nov 16, 12:51 PM)29.93 "Hg (Nov 21, 4:51 AM)
Average63 °F52%30.09 "Hg
* Reported Nov 11 10:51 PM — Nov 26 10:51 PM, San Buenaventura, Weather by CustomWeather, © 2014

Note: Actual official high and low records may vary slightly from our data, if they occured in-between our weather recording intervals... More about our weather records

Advertising

San Buenaventura weather history for previous 24 hours

 ConditionsComfort  
Time TempWeatherWind HumidityBarometerVisibility
10:51 PM
Nov 26
59 °FClear.No wind56%30.13 "Hg10 mi
9:51 PM55 °FClear.3 mph69%30.14 "Hg10 mi
8:51 PM59 °FClear.3 mph64%30.14 "Hg10 mi
7:51 PM60 °FClear.3 mph69%30.13 "Hg10 mi
6:51 PM62 °FClear.No wind78%30.14 "Hg10 mi
5:51 PM66 °FClear.No wind75%30.13 "Hg10 mi
4:51 PM66 °FClear.3 mph78%30.13 "Hg10 mi
3:51 PM70 °FSunny.7 mph61%30.13 "Hg10 mi
2:51 PM73 °FSunny.8 mph40%30.14 "Hg10 mi
1:51 PM73 °FSunny.8 mph44%30.14 "Hg10 mi
12:51 PM73 °FSunny.6 mph43%30.16 "Hg10 mi
11:51 AM73 °FSunny.9 mph38%30.19 "Hg10 mi
10:51 AM76 °FSunny.7 mph27%30.21 "Hg10 mi
9:51 AM73 °FSunny.3 mph13%30.23 "Hg10 mi
8:51 AM69 °FSunny.8 mph17%30.23 "Hg10 mi
7:51 AM64 °FSunny.8 mph20%30.22 "Hg10 mi
6:51 AM57 °FSunny.7 mph24%30.21 "Hg10 mi
5:51 AM58 °FClear.7 mph24%30.20 "Hg10 mi
4:51 AM59 °FClear.7 mph22%30.20 "Hg10 mi
3:51 AM59 °FClear.7 mph22%30.21 "Hg10 mi
2:51 AM59 °FClear.8 mph22%30.22 "Hg10 mi
1:51 AM58 °FClear.10 mph24%30.23 "Hg10 mi
12:51 AM57 °FClear.9 mph27%30.23 "Hg10 mi
Weather by CustomWeather, © 2014

See weather overviewHow to use our weather pages